Wetbulb
73.73 75.59 76.89 77.21 76.53 76.58 76.63 76.53 76.48 76.53 76.42 76.35 76.60 76.68 76.78 76.48 76.68 76.70 76.73 76.45 76.31 75.52 74.84 73.83 72.97 73.00 73.76 73.74 74.16 74.15 74.32 74.39 73.98 73.19 73.43 73.80 73.86 74.37 73.92 72.93 72.64 71.47 72.50
74.57 75.65 77.21 76.92 76.60 76.46 76.40 76.53 76.28 76.05 76.15 76.30 76.32 76.20 76.24 76.39 76.42 76.37 76.35 76.28 76.01 75.04 74.44 73.26 72.75 73.16 73.57 73.64 73.72 73.59 73.69 74.02 74.67 73.96 72.96 73.30 74.02 73.85 72.92 72.59 72.52 71.48 72.09
74.24 75.45 76.39 76.79 76.73 76.75 76.52 76.31 75.92 75.92 76.02 75.97 75.95 75.85 75.94 76.12 76.10 76.03 76.22 76.20 75.38 74.73 73.72 72.94 73.08 73.42 73.62 73.77 73.44 73.28 73.08 73.37 73.92 74.23 73.53 70.22 70.52 72.57 72.82 72.69 72.46 72.33 72.07
74.66 75.04 75.56 76.89 76.60 76.53 76.27 76.11 75.71 75.87 75.82 75.96 76.14 76.14 76.09 76.19 76.00 75.40 75.52 75.46 74.44 73.67 73.32 72.83 73.09 73.43 73.50 73.60 73.23 72.92 72.85 72.88 73.06 72.84 71.10 71.37 70.25 72.93 72.49 72.72 72.77 72.28 71.97
74.46 74.62 75.55 76.94 76.39 76.37 76.05 76.16 75.76 75.81 75.61 75.89 76.04 76.14 75.94 76.01 76.06 75.56 75.30 74.95 73.64 73.04 72.89 72.81 73.01 73.21 73.27 73.30 73.29 73.08 72.62 71.69 70.80 68.56 64.41 64.71 68.39 72.05 73.06 72.80 73.23 72.58 72.21
73.97 74.35 76.21 76.66 76.39 76.30 76.15 76.04 75.73 75.66 75.61 75.82 75.75 75.82 75.79 75.62 75.68 75.28 74.87 74.43 73.79 72.72 72.50 72.46 72.57 72.82 73.13 73.24 73.06 72.05 71.18 70.54 68.85 61.78 61.62 65.13 67.52 72.68 73.38 73.12 73.19 72.96 72.05
73.88 74.40 75.56 76.43 76.59 76.40 76.25 76.04 75.96 75.66 75.48 75.69 75.77 75.52 75.59 75.63 75.42 74.93 74.70 74.13 73.66 73.41 72.75 72.18 72.52 72.96 72.96 72.34 71.35 70.62 70.01 69.42 63.46 61.01 61.92 63.00 67.23 72.81 74.03 73.54 72.93 73.21 72.07
74.02 74.71 74.79 76.34 76.46 76.36 76.17 76.04 75.88 75.60 75.33 75.48 75.56 75.56 75.73 75.42 75.17 74.96 74.50 74.41 74.05 73.65 72.99 72.47 72.22 71.69 70.94 70.57 70.25 69.69 69.16 68.91 64.55 61.35 60.95 61.28 68.78 72.89 73.52 75.00 74.06 72.64 72.09
74.26 74.47 74.63 74.88 75.74 76.49 75.93 75.58 75.64 75.41 75.22 75.27 75.20 75.32 75.39 75.25 75.07 74.98 74.39 74.18 74.01 73.48 73.19 72.76 72.34 71.60 70.70 70.30 69.99 69.66 69.60 69.04 63.27 61.79 62.60 61.47 67.62 73.56 73.92 74.90 74.11 73.24 72.61
73.17 73.69 74.04 74.77 75.11 74.57 74.71 76.01 75.75 75.56 75.39 75.06 75.12 75.06 74.99 75.00 74.97 74.78 73.94 73.79 73.98 73.66 73.14 72.76 72.27 71.58 71.18 70.42 70.12 70.02 70.37 69.41 64.71 63.19 62.80 61.79 70.09 73.34 74.64 75.08 74.36 74.28 74.10
71.49 72.19 73.25 73.84 74.45 74.29 74.22 74.97 75.74 75.89 75.78 75.39 75.32 75.09 74.02 72.40 72.51 72.83 73.24 72.92 73.92 73.60 73.28 73.06 72.34 71.80 71.26 71.11 71.11 71.04 70.56 66.11 64.74 63.50 62.93 66.10 69.41 73.71 74.58 75.41 74.95 74.55 74.42
69.88 70.80 72.40 73.16 73.54 73.91 74.62 74.19 74.53 74.32 74.44 73.84 73.55 73.07 72.16 71.03 70.87 72.16 72.59 73.28 73.51 73.75 73.43 73.25 72.76 72.19 71.53 67.38 65.54 67.52 66.35 66.52 65.57 64.51 63.80 68.37 70.22 70.93 73.77 75.28 75.03 74.85 74.45
70.44 70.43 71.56 72.36 72.85 73.00 73.61 74.09 73.86 73.92 74.17 73.95 73.08 72.54 71.12 71.04 70.26 71.21 70.15 70.66 70.55 72.49 70.30 70.96 70.10 69.35 67.68 66.67 65.93 64.66 64.27 64.83 65.49 65.18 66.12 70.34 71.32 72.32 74.21 74.94 74.38 74.38 74.20
69.48 69.64 70.44 71.56 71.73 72.19 73.00 72.86 72.61 72.75 72.95 72.83 73.15 72.36 71.13 69.54 68.75 69.07 68.98 67.96 67.87 68.46 68.28 67.51 67.01 66.80 66.77 66.82 65.80 65.24 64.87 64.82 66.08 65.96 66.25 70.66 71.31 72.79 74.73 74.65 73.97 73.17 73.18
69.18 69.31 69.61 70.58 70.67 71.17 70.52 71.97 71.97 72.53 72.48 72.61 72.64 72.62 71.92 70.24 68.89 69.18 68.28 67.31 67.26 67.76 67.24 66.36 65.86 65.63 64.75 64.54 64.58 65.04 64.80 65.62 67.13 67.33 67.52 71.65 72.74 72.89 73.74 74.95 75.17 73.86 73.29
69.66 69.30 69.39 69.52 69.79 69.30 69.31 70.38 70.46 71.53 72.03 72.27 72.14 72.28 71.99 70.91 69.75 68.48 68.35 67.84 67.39 66.97 66.64 66.10 64.68 63.67 62.80 62.46 63.15 64.10 65.12 67.10 68.51 67.79 68.71 68.47 72.39 73.02 73.46 74.75 75.72 75.05 74.59
67.59 68.66 68.46 69.17 69.51 68.18 68.21 69.59 69.53 70.40 70.87 71.36 71.68 71.86 72.17 71.63 70.04 68.87 67.29 67.02 67.05 65.77 65.70 65.48 64.54 62.81 62.52 63.36 64.04 65.57 67.10 67.96 69.17 69.53 69.16 67.82 67.95 72.80 73.24 74.00 74.78 75.25 75.28
67.01 67.69 68.68 69.83 68.73 67.05 68.24 69.06 69.17 69.07 68.44 69.57 69.45 69.84 71.10 71.54 70.81 68.21 67.13 66.70 66.50 65.19 65.23 64.74 63.86 62.96 62.90 62.81 63.51 65.17 66.74 67.55 68.84 68.82 68.91 68.84 68.91 69.16 71.54 73.12 73.43 74.18 74.85
66.49 67.66 68.20 67.97 67.38 66.15 69.37 70.53 69.91 68.76 67.38 68.14 66.97 66.66 67.67 69.36 70.87 69.39 68.26 67.87 66.35 65.95 65.86 65.62 64.21 64.52 63.52 64.12 64.46 64.82 64.81 65.30 66.40 67.81 68.25 68.67 68.34 69.13 68.91 70.97 72.46 72.85 73.39
64.30 67.80 67.39 65.93 64.96 65.10 64.42 64.84 68.89 70.69 70.89 68.59 66.64 66.64 67.01 67.31 68.77 69.31 69.46 67.15 66.46 65.97 66.75 65.58 65.54 65.08 65.17 65.41 65.20 65.23 64.47 65.18 65.10 65.65 66.29 67.33 68.09 68.56 68.63 68.62 68.71 69.70 72.29
62.81 65.12 65.88 64.33 64.13 64.83 64.70 63.86 65.40 67.33 69.00 70.40 70.49 69.75 67.85 68.16 68.62 68.71 68.75 68.42 66.61 66.14 66.70 65.92 65.79 65.17 65.39 63.53 62.50 62.56 62.96 64.56 64.91 65.65 66.67 66.57 67.33 68.54 68.23 68.41 68.00 68.01 68.87
61.58 64.20 63.90 64.02 61.92 61.56 60.62 67.04 68.46 68.41 68.48 68.63 68.55 68.56 70.12 70.00 68.77 68.96 68.54 68.61 68.63 67.35 66.79 66.44 64.97 64.71 64.77 64.29 63.03 60.76 60.42 62.40 63.93 66.02 66.87 67.32 67.67 68.16 68.70 68.69 68.22 68.23 68.38
57.54 59.69 61.20 59.63 60.25 59.07 57.01 59.79 60.37 60.56 60.79 61.81 62.16 63.36 64.79 65.78 67.79 68.86 69.04 68.55 68.34 68.73 66.92 65.82 65.61 65.31 64.81 64.95 64.80 62.89 59.19 58.02 60.92 62.32 65.17 66.29 64.12 65.67 67.56 67.59 68.13 68.62 68.50
53.00 54.16 55.98 56.99 57.10 57.99 58.10 58.24 57.19 55.66 55.55 58.45 58.96 61.11 61.91 64.67 65.63 66.61 68.10 67.85 67.53 66.51 65.14 66.84 66.07 63.50 64.22 64.92 64.39 65.73 64.70 61.87 59.51 58.81 62.18 62.88 62.01 61.42 61.93 64.90 67.06 68.66 67.67
54.14 54.88 56.18 56.48 58.40 59.53 58.68 57.50 56.85 56.35 57.06 58.16 58.66 58.05 59.17 61.05 64.51 65.43 64.50 64.91 65.25 64.57 64.00 64.09 64.43 65.21 66.86 64.65 64.33 64.21 63.34 64.00 63.33 61.03 58.69 58.53 60.95 61.24 61.63 61.81 63.03 66.02 66.13
53.05 53.62 54.54 55.71 55.40 56.92 57.06 56.84 56.82 56.40 57.25 57.89 58.00 57.80 57.69 58.20 59.33 61.46 63.17 63.60 62.04 61.37 60.97 62.87 63.41 61.89 62.73 63.59 64.70 63.74 63.11 61.53 60.42 58.90 56.57 57.11 57.64 58.44 60.20 61.34 61.98 64.16 65.19
MSLP
1008.05 1008.07 1008.31 1008.71 1008.86 1009.05 1009.35 1009.62 1009.93 1010.14 1010.32 1010.44 1010.58 1010.86 1011.20 1011.52 1011.78 1012.05 1012.34 1012.66 1012.83 1013.04 1013.28 1013.49 1013.69 1013.91 1014.05 1014.17 1014.28 1014.44 1014.54 1014.65 1014.76 1014.78 1014.79 1014.83 1014.83 1014.82 1014.88 1014.90 1014.96 1015.05 1015.03
1007.42 1008.00 1008.34 1008.65 1008.77 1009.02 1009.44 1009.77 1010.12 1010.46 1010.69 1010.88 1011.13 1011.36 1011.59 1011.88 1012.14 1012.42 1012.72 1012.92 1013.08 1013.30 1013.47 1013.65 1013.84 1014.03 1014.17 1014.28 1014.38 1014.51 1014.58 1014.66 1014.72 1014.75 1014.82 1014.98 1014.93 1014.92 1014.91 1014.91 1015.06 1015.09 1015.18
1007.51 1007.96 1008.47 1008.84 1008.95 1009.14 1009.52 1009.98 1010.34 1010.70 1010.94 1011.15 1011.45 1011.74 1012.01 1012.32 1012.60 1012.84 1013.04 1013.17 1013.31 1013.51 1013.68 1013.85 1014.03 1014.17 1014.33 1014.42 1014.50 1014.58 1014.76 1014.89 1014.99 1015.02 1015.05 1015.21 1015.18 1015.02 1014.90 1014.90 1015.02 1015.24 1015.30
1007.46 1007.99 1008.40 1008.87 1009.10 1009.29 1009.72 1010.12 1010.49 1010.83 1011.14 1011.37 1011.64 1011.91 1012.19 1012.45 1012.73 1012.90 1013.02 1013.13 1013.29 1013.46 1013.61 1013.75 1013.93 1014.10 1014.25 1014.41 1014.56 1014.72 1014.83 1014.94 1015.03 1015.12 1015.22 1015.26 1015.23 1015.21 1015.20 1015.00 1015.10 1015.26 1015.37
1008.00 1008.23 1008.46 1008.78 1009.24 1009.37 1009.88 1010.26 1010.62 1010.95 1011.22 1011.49 1011.69 1011.99 1012.31 1012.60 1012.83 1012.97 1013.06 1013.22 1013.34 1013.47 1013.55 1013.65 1013.77 1013.98 1014.15 1014.33 1014.56 1014.79 1014.95 1015.08 1015.17 1015.10 1015.19 1015.27 1015.29 1015.07 1015.05 1015.12 1015.11 1015.25 1015.28
1007.99 1008.27 1008.53 1008.90 1009.36 1009.55 1009.83 1010.24 1010.63 1011.01 1011.33 1011.63 1011.93 1012.07 1012.26 1012.51 1012.74 1012.92 1013.14 1013.28 1013.45 1013.53 1013.60 1013.80 1014.05 1014.27 1014.46 1014.58 1014.71 1014.87 1015.00 1015.10 1015.25 1015.36 1015.20 1015.01 1015.06 1015.11 1015.20 1015.16 1015.17 1015.30 1015.52
1008.15 1008.44 1008.62 1008.94 1009.38 1009.62 1009.90 1010.33 1010.64 1010.95 1011.29 1011.57 1011.84 1012.17 1012.36 1012.55 1012.77 1013.00 1013.15 1013.33 1013.51 1013.64 1013.86 1014.04 1014.20 1014.35 1014.47 1014.60 1014.71 1014.71 1014.80 1014.93 1015.18 1015.31 1015.28 1015.13 1015.18 1015.22 1015.40 1015.39 1015.29 1015.35 1015.40
1008.16 1008.67 1008.83 1009.11 1009.52 1009.83 1010.08 1010.34 1010.62 1010.93 1011.26 1011.57 1011.81 1012.06 1012.31 1012.54 1012.81 1012.98 1013.18 1013.30 1013.43 1013.62 1013.83 1014.05 1014.29 1014.42 1014.50 1014.56 1014.54 1014.66 1014.66 1014.67 1014.80 1014.95 1014.93 1015.03 1014.92 1014.97 1015.14 1015.45 1015.41 1015.41 1015.40
1008.31 1008.58 1008.86 1009.30 1009.70 1009.96 1010.15 1010.40 1010.70 1010.99 1011.28 1011.51 1011.71 1012.00 1012.26 1012.53 1012.80 1013.08 1013.27 1013.45 1013.68 1013.90 1014.01 1014.03 1014.14 1014.34 1014.45 1014.55 1014.51 1014.46 1014.58 1014.50 1014.68 1014.81 1014.67 1014.58 1014.54 1014.63 1014.63 1014.88 1015.22 1015.39 1015.40
1008.43 1008.44 1008.56 1008.80 1009.23 1009.77 1010.17 1010.49 1010.79 1011.09 1011.40 1011.74 1012.06 1012.27 1012.50 1012.75 1012.94 1013.09 1013.21 1013.41 1013.60 1013.73 1013.88 1014.06 1014.15 1014.35 1014.56 1014.66 1014.87 1014.92 1014.87 1014.83 1014.85 1014.99 1014.74 1014.59 1014.44 1014.49 1014.50 1014.58 1014.67 1014.85 1015.22
1008.77 1008.86 1008.99 1009.02 1009.18 1009.60 1010.02 1010.43 1010.83 1011.12 1011.40 1011.64 1011.93 1012.20 1012.49 1012.77 1012.96 1013.18 1013.42 1013.55 1013.68 1013.82 1013.96 1013.98 1014.05 1014.20 1014.22 1014.56 1014.82 1014.90 1014.85 1014.87 1014.91 1014.91 1014.65 1014.51 1014.39 1014.35 1014.49 1014.43 1014.69 1014.53 1014.69
1008.57 1008.88 1009.10 1009.19 1009.27 1009.36 1009.65 1010.04 1010.45 1010.88 1011.31 1011.68 1011.92 1012.30 1012.58 1012.85 1013.02 1013.22 1013.47 1013.71 1013.83 1013.90 1013.93 1014.23 1014.25 1014.21 1014.31 1014.42 1014.49 1014.57 1014.82 1014.66 1014.65 1014.53 1014.42 1014.26 1014.19 1014.16 1014.14 1014.30 1014.42 1014.47 1014.54
1008.07 1008.63 1008.95 1009.33 1009.38 1009.48 1009.46 1009.76 1010.32 1010.83 1011.15 1011.54 1011.71 1011.97 1012.41 1012.84 1013.13 1013.29 1013.39 1013.37 1013.38 1013.60 1013.86 1013.81 1014.10 1014.22 1014.40 1014.33 1014.12 1014.19 1014.30 1014.33 1014.18 1014.13 1013.94 1013.86 1013.86 1013.75 1013.73 1013.83 1014.19 1014.29 1014.25
1007.85 1008.07 1008.57 1009.04 1009.33 1009.49 1009.44 1009.83 1010.00 1010.50 1010.59 1010.97 1011.56 1011.80 1012.16 1012.57 1012.88 1013.08 1013.23 1013.52 1013.57 1013.73 1013.72 1013.95 1014.00 1014.20 1014.12 1014.17 1014.32 1014.02 1013.83 1013.74 1013.67 1013.45 1013.32 1013.10 1013.13 1013.24 1013.20 1013.14 1013.54 1013.80 1013.96
1007.52 1007.97 1008.22 1008.55 1009.00 1009.44 1009.81 1010.01 1010.10 1010.33 1010.43 1010.65 1010.97 1011.28 1011.63 1012.08 1012.50 1012.72 1012.84 1013.24 1013.38 1013.37 1013.85 1013.77 1013.71 1013.98 1014.06 1014.19 1013.95 1013.85 1013.34 1013.42 1013.40 1012.95 1012.49 1012.24 1012.12 1012.28 1012.56 1012.76 1013.10 1013.42 1013.79
1006.56 1007.06 1007.68 1008.15 1008.39 1009.09 1009.60 1009.76 1010.00 1010.05 1010.39 1010.59 1010.81 1011.04 1011.33 1011.70 1011.94 1012.44 1012.78 1012.87 1012.80 1012.96 1013.37 1013.47 1013.71 1013.86 1014.09 1014.15 1013.94 1013.51 1013.18 1012.74 1012.66 1012.43 1011.87 1011.93 1011.93 1012.12 1012.44 1012.50 1012.82 1013.11 1013.47
1006.16 1006.33 1006.84 1007.37 1008.02 1008.71 1009.05 1009.47 1009.78 1009.69 1010.17 1010.57 1010.43 1010.67 1011.17 1011.44 1011.84 1012.21 1012.55 1012.69 1012.56 1012.75 1013.10 1013.19 1013.39 1013.49 1013.77 1013.67 1013.46 1013.18 1012.85 1012.43 1012.38 1012.24 1012.23 1012.39 1012.62 1012.64 1012.68 1012.89 1012.81 1012.74 1013.00
1006.15 1006.16 1006.40 1006.91 1007.59 1008.28 1008.68 1008.98 1009.38 1009.52 1009.78 1009.93 1010.12 1010.60 1010.78 1011.47 1011.48 1011.70 1012.04 1012.06 1012.07 1012.48 1012.64 1012.87 1013.07 1013.26 1013.41 1013.25 1013.08 1012.50 1012.52 1012.57 1012.45 1012.41 1012.38 1012.07 1012.05 1012.23 1012.21 1012.31 1012.33 1012.31 1012.52
1005.56 1005.85 1006.30 1006.74 1007.30 1007.77 1008.16 1008.59 1009.05 1009.32 1009.62 1009.57 1010.26 1010.74 1011.21 1011.33 1011.13 1011.26 1011.52 1011.59 1011.78 1012.04 1012.24 1012.35 1012.62 1012.69 1012.87 1012.71 1012.64 1012.63 1012.43 1012.26 1011.95 1011.81 1011.92 1011.62 1011.58 1011.83 1011.78 1011.56 1011.71 1011.86 1012.03
1005.17 1005.59 1006.07 1006.41 1006.93 1007.54 1008.17 1008.65 1008.74 1009.15 1009.33 1009.26 1010.00 1010.38 1010.64 1010.86 1010.85 1011.00 1011.26 1011.43 1011.51 1011.97 1012.06 1012.33 1012.10 1012.11 1012.03 1011.82 1011.99 1011.90 1011.83 1011.75 1011.80 1011.82 1011.59 1011.34 1011.18 1011.10 1011.16 1011.13 1011.18 1011.25 1011.31
1005.39 1005.77 1005.97 1006.31 1006.57 1007.30 1008.18 1008.49 1008.67 1008.79 1009.03 1009.34 1009.56 1009.65 1009.85 1009.88 1010.13 1010.41 1010.44 1010.86 1011.17 1011.63 1011.94 1011.95 1011.90 1012.06 1012.02 1011.81 1012.15 1011.69 1011.53 1011.40 1011.41 1011.52 1011.47 1011.29 1010.95 1010.49 1010.85 1010.74 1010.71 1010.84 1010.91
1004.85 1005.22 1005.66 1005.97 1006.38 1006.88 1007.31 1007.57 1007.74 1008.02 1008.22 1008.44 1008.99 1009.28 1009.20 1009.34 1009.45 1009.71 1010.12 1010.28 1010.26 1010.49 1011.24 1011.35 1011.62 1011.73 1011.60 1011.22 1011.40 1011.87 1011.59 1011.06 1010.91 1010.88 1011.04 1010.91 1010.71 1010.59 1010.69 1010.38 1010.39 1010.42 1010.43
1005.05 1005.31 1005.38 1005.55 1005.98 1006.36 1006.55 1007.24 1007.69 1007.92 1008.47 1008.89 1009.16 1009.26 1009.26 1009.07 1009.10 1009.25 1009.44 1009.70 1009.94 1010.16 1010.68 1010.97 1011.64 1012.26 1012.12 1011.45 1011.07 1011.40 1011.46 1010.76 1010.51 1010.67 1011.21 1011.64 1011.63 1011.77 1011.95 1011.53 1010.51 1010.06 1009.98
1004.86 1005.17 1005.60 1005.95 1006.31 1006.74 1007.08 1007.51 1007.90 1008.40 1009.21 1009.40 1009.54 1009.57 1009.49 1009.15 1009.12 1008.98 1009.24 1009.45 1009.65 1009.78 1009.90 1009.52 1009.90 1009.93 1010.63 1010.92 1010.88 1010.47 1010.59 1010.87 1011.58 1011.66 1011.64 1011.13 1011.11 1011.22 1011.51 1011.60 1011.55 1010.47 1009.77
1004.82 1005.16 1005.70 1006.31 1006.75 1007.33 1007.42 1007.78 1008.34 1008.73 1009.09 1009.42 1009.62 1009.78 1009.81 1009.69 1009.46 1009.18 1009.17 1009.47 1009.61 1009.82 1009.76 1009.52 1009.45 1009.65 1009.78 1010.35 1010.46 1010.07 1010.39 1010.59 1011.25 1011.97 1011.89 1011.70 1011.34 1010.06 1010.53 1010.37 1010.71 1010.69 1010.47
1005.32 1005.54 1006.33 1007.03 1007.62 1007.87 1008.09 1008.15 1008.20 1008.44 1008.86 1009.20 1009.51 1009.56 1009.60 1009.46 1009.38 1009.37 1009.22 1009.11 1009.24 1009.39 1009.44 1009.43 1009.31 1009.36 1009.42 1009.58 1009.52 1009.43 1009.53 1009.91 1010.65 1012.19 1011.98 1011.90 1011.86 1010.50 1009.58 1009.22 1009.01 1009.67 1009.87
Wind_Speed
7 10 17 14 14 16 18 19 18 19 18 17 17 17 17 17 17 17 16 15 14 14 13 12 11 11 10 10 10 10 9 9 9 9 9 8 6 12 10 11 11 7 10
14 11 15 14 16 17 17 18 18 17 18 18 18 17 16 16 15 15 14 14 13 13 12 12 11 11 11 11 11 10 10 9 7 8 8 8 9 10 11 11 11 8 9
15 12 12 13 15 17 17 17 17 16 16 17 17 17 16 15 14 13 12 12 13 12 11 11 11 11 11 10 10 9 8 6 5 5 6 3 3 8 10 11 11 10 9
14 11 11 14 15 17 16 16 16 15 15 16 16 15 15 14 13 14 12 12 12 12 12 12 11 11 10 10 9 8 7 6 4 3 2 3 5 8 9 11 11 10 10
10 9 12 16 15 17 17 16 15 15 14 14 15 15 14 13 12 11 11 11 12 12 13 13 12 12 11 9 8 6 5 4 2 1 2 4 5 7 11 11 11 11 11
10 9 14 16 15 17 17 17 16 15 14 14 14 15 15 14 12 11 10 10 10 12 12 11 10 9 8 7 5 5 4 3 0 2 3 3 6 7 11 11 11 12 11
10 8 12 16 15 16 17 16 16 16 15 15 15 15 14 13 12 11 11 11 10 10 10 10 9 8 7 6 5 5 5 4 1 2 3 2 5 9 11 11 10 12 11
12 8 9 13 14 14 16 16 16 15 15 15 14 14 13 13 12 11 10 11 11 11 10 9 8 7 7 7 7 7 6 6 1 2 3 2 7 11 13 12 10 11 12
11 11 8 7 10 14 15 15 15 15 15 15 15 14 13 12 11 10 10 9 8 8 8 8 8 8 8 8 8 8 8 7 3 3 4 3 7 13 15 13 12 12 12
9 10 12 12 11 9 8 14 14 14 14 13 13 12 12 11 11 10 10 9 9 9 9 8 7 7 8 8 8 8 8 9 4 4 4 4 7 14 15 14 14 13 12
6 6 8 10 10 9 8 9 12 15 14 14 13 13 9 4 6 8 7 10 10 9 9 8 7 7 7 8 8 8 10 3 4 4 3 9 9 12 14 14 15 14 14
11 8 8 9 11 11 9 8 8 8 6 6 6 5 4 4 4 5 6 9 9 9 9 9 9 8 7 3 3 7 3 4 3 4 3 11 11 14 15 15 15 14 14
11 9 10 8 8 10 9 7 6 6 5 5 7 6 4 3 3 3 3 3 4 8 3 5 4 3 5 4 4 3 4 4 3 3 6 10 12 15 15 14 14 15 14
9 11 11 9 8 9 5 6 7 8 7 8 9 8 6 4 4 4 3 4 3 3 4 4 3 5 6 5 5 6 6 4 4 4 6 14 14 15 16 15 15 16 14
10 10 12 12 11 9 5 5 5 8 8 9 10 9 7 7 6 5 4 4 4 4 4 4 4 4 4 5 5 6 6 6 7 4 4 13 14 17 18 16 16 15 14
14 14 13 14 12 9 7 6 5 5 6 6 7 7 9 7 6 6 5 6 6 5 4 4 4 4 4 4 7 6 8 8 8 7 5 6 10 11 14 14 14 13 13
8 10 16 16 12 11 8 6 5 6 5 6 6 8 9 9 6 5 4 5 5 4 5 4 4 3 4 5 7 5 7 10 7 6 5 3 3 9 11 13 12 11 13
5 10 11 11 11 7 8 6 5 5 5 6 4 4 7 8 7 6 5 7 5 5 5 5 4 4 6 4 6 8 6 4 6 5 4 4 5 4 8 15 12 13 14
13 8 9 8 11 10 7 6 6 6 5 5 3 3 4 7 6 6 7 7 6 5 6 6 4 6 5 5 5 5 5 5 6 5 7 6 5 5 4 8 12 14 14
9 9 8 8 9 8 5 3 3 4 5 4 4 5 6 5 7 7 7 4 4 5 6 3 7 5 7 7 4 6 5 7 5 5 7 6 5 7 6 6 5 5 12
5 7 9 9 10 8 4 3 2 4 2 3 4 6 8 7 9 9 6 5 5 5 7 7 5 6 6 3 0 3 3 6 6 6 6 5 7 8 6 5 4 4 4
11 12 8 9 7 5 4 4 4 4 3 3 3 3 4 5 6 8 7 8 8 6 8 8 5 5 5 5 5 2 4 5 2 6 6 5 10 3 6 6 6 6 5
9 9 10 10 9 6 5 2 3 4 4 4 4 3 3 4 1 6 7 7 9 9 6 4 3 7 9 5 7 5 2 5 6 1 4 6 8 8 9 10 7 6 5
7 7 7 6 6 3 5 3 3 3 3 1 2 1 3 4 5 3 4 4 5 4 5 9 9 14 15 14 3 6 5 3 1 10 3 1 1 6 8 8 12 8 5
7 7 6 6 5 3 5 6 5 5 3 3 2 2 0 2 4 6 4 4 5 4 6 7 9 10 8 7 4 2 4 3 4 2 7 4 5 8 9 6 5 7 8
6 8 8 9 6 7 7 7 8 8 5 4 2 2 2 2 1 3 5 4 4 5 5 6 6 6 7 6 6 4 4 4 4 5 4 4 9 8 10 9 5 4 3
Wind_Direction
178 159 161 155 139 126 124 122 123 123 123 120 118 118 120 124 129 135 137 139 135 134 135 134 133 133 135 133 125 125 122 118 127 129 130 128 126 150 137 127 122 119 114
144 155 160 156 143 131 126 125 126 127 126 125 125 125 126 131 136 138 139 136 134 137 138 139 140 143 146 143 138 134 129 133 143 140 135 139 130 131 145 136 131 129 123
145 151 156 156 144 133 131 130 129 128 127 127 129 131 132 134 135 134 133 132 137 140 141 145 150 151 153 151 148 143 137 131 126 147 146 141 164 160 154 145 138 134 130
144 150 152 153 147 135 133 132 131 130 130 130 132 131 131 132 137 141 140 142 146 149 152 156 160 162 163 160 157 153 147 145 153 179 202 185 196 182 176 154 145 145 143
144 151 155 150 151 140 140 138 137 137 137 138 138 138 139 142 146 149 149 154 159 162 165 168 169 171 173 173 170 166 159 165 182 323 250 239 207 197 193 172 159 161 156
147 155 155 150 153 147 146 147 145 147 148 148 150 151 154 157 159 159 162 165 172 175 177 177 177 181 185 188 187 193 198 201 126 294 300 296 179 198 207 187 176 171 169
148 156 152 151 157 154 152 153 154 157 160 161 161 164 166 167 168 171 175 180 186 187 186 185 188 191 193 199 211 219 235 252 156 239 285 335 212 190 213 206 182 179 177
148 149 153 155 158 158 157 161 164 165 168 170 171 173 174 176 180 185 188 190 193 193 191 192 198 205 205 211 218 230 240 257 293 275 267 276 217 200 210 219 190 185 188
153 148 149 154 164 165 166 168 171 172 175 179 179 179 179 182 187 190 197 202 207 213 212 207 204 208 216 227 232 232 242 250 236 242 261 241 240 209 206 211 204 196 197
164 164 163 166 171 170 171 176 176 178 182 183 185 185 186 191 194 199 202 210 213 215 218 223 222 229 239 247 261 272 275 275 289 274 275 271 256 214 215 211 210 200 205
170 180 178 172 170 168 167 181 183 189 189 188 190 193 186 184 196 208 217 217 226 229 232 228 230 238 246 261 270 275 277 277 281 269 258 266 263 225 235 222 221 209 204
192 190 186 181 178 173 177 179 177 183 182 189 187 189 183 190 196 201 220 231 240 241 239 251 249 247 254 241 253 276 280 272 266 258 261 266 255 243 240 233 226 220 213
182 183 188 189 185 183 180 172 179 191 186 194 188 181 180 182 198 207 210 224 221 234 240 241 253 249 256 247 249 254 250 249 238 253 261 262 251 253 234 227 230 228 218
185 185 179 187 189 193 182 178 177 191 189 198 206 187 176 185 190 201 200 225 223 221 222 227 233 250 250 254 258 265 262 246 236 225 242 249 249 244 229 221 225 226 221
188 188 188 183 189 189 187 183 184 194 193 201 204 198 190 196 201 203 207 192 212 193 223 229 229 256 264 275 255 253 261 263 255 237 240 249 240 234 227 222 228 224 225
193 188 181 194 188 178 187 180 186 187 198 202 207 205 203 207 205 208 211 216 223 196 212 212 223 233 253 263 270 251 260 252 252 245 242 258 247 233 229 224 233 227 229
202 188 184 191 180 184 183 183 180 187 188 204 204 198 205 207 207 203 208 226 221 192 201 218 229 229 246 241 256 261 255 260 263 269 284 301 318 256 247 248 235 234 231
191 186 195 183 178 169 170 179 181 190 190 209 201 212 199 215 200 191 210 223 198 187 199 208 198 228 244 229 251 252 262 263 275 277 272 235 223 233 234 236 237 235 233
200 187 171 172 172 172 169 173 183 185 199 207 183 229 226 229 211 211 225 229 193 195 213 211 212 212 225 243 248 267 262 257 252 250 261 264 240 225 224 226 232 235 235
190 179 175 169 158 174 176 189 176 183 214 185 194 206 205 220 212 218 234 223 204 207 229 204 217 213 228 238 241 250 245 256 260 253 257 258 242 234 227 223 231 236 229
164 183 183 170 189 161 157 180 182 190 159 198 180 202 211 209 214 215 215 217 193 208 232 217 229 235 254 191 292 281 264 248 253 257 263 261 255 251 244 233 236 233 229
182 194 179 199 174 164 155 168 168 168 184 146 142 150 177 203 206 224 222 226 228 199 223 225 214 254 255 188 202 176 284 290 252 241 254 249 256 261 251 238 239 239 227
176 193 188 183 178 187 173 95 68 59 46 53 31 25 352 352 340 207 217 216 221 228 182 131 327 286 281 277 230 195 277 236 305 11 0 31 29 7 330 311 281 243 229
197 160 164 160 161 161 149 100 92 113 118 160 112 344 338 340 331 341 256 244 230 218 224 202 220 232 237 253 225 229 243 96 280 301 267 331 328 2 340 336 315 283 228
141 134 120 123 113 107 110 117 115 99 113 146 136 139 268 322 324 321 321 250 249 209 236 240 236 234 231 243 236 202 211 170 161 244 267 307 304 271 254 245 293 298 278
95 97 108 118 120 126 127 133 127 131 137 112 95 43 2 341 318 326 321 313 268 255 225 222 234 238 239 224 233 180 168 158 160 232 214 226 246 258 254 243 215 223 278